GW1243 Weather Reports


time (UTC)temp
F
wind
direction
speed
knots
gust
knots
rain 1hr
in
rain 24hr
in
rain mn
in
humidity
%
barometer
mb
20260510214535 42 0 0.0 2.6 0.00 0.00 0.00 94 1033.1
20260510213037 42 120 0.9 2.6 0.00 0.00 0.00 94 1032.9
20260510211538 42 118 1.7 5.2 0.00 0.00 0.00 94 1032.7
20260510210039 42 121 2.6 5.2 0.00 0.00 0.00 94 1032.6
20260510204536 42 134 0.9 3.5 0.00 0.00 0.00 94 1032.5
20260510203035 42 133 0.9 2.6 0.00 0.00 0.00 94 1032.2
20260510201535 42 0 0.0 4.3 0.00 0.00 0.00 94 1032.0
20260510200034 42 136 1.7 3.5 0.00 0.00 0.00 94 1031.8
20260510194531 42 139 0.9 3.5 0.00 0.00 0.00 94 1031.6
20260510193030 43 138 1.7 3.5 0.00 0.00 0.00 94 1031.4
20260510191536 43 135 1.7 4.3 0.00 0.00 0.00 94 1031.3
20260510190041 43 139 1.7 6.1 0.00 0.00 0.00 94 1031.3
20260510184539 43 131 1.7 4.3 0.00 0.00 0.00 94 1031.2
20260510183037 43 122 1.7 4.3 0.00 0.00 0.00 94 1031.2
20260510181530 43 126 1.7 6.1 0.00 0.00 0.00 94 1031.1
20260510180035 43 123 3.5 7.8 0.00 0.00 0.00 93 1030.9
20260510174535 43 124 2.6 6.1 0.00 0.00 0.00 93 1030.9
20260510173039 44 116 2.6 7.0 0.00 0.00 0.00 93 1030.8
20260510171533 44 129 3.5 7.0 0.00 0.00 0.00 93 1030.9
20260510170037 43 115 2.6 7.0 0.00 0.00 0.00 93 1030.9
20260510164539 43 117 2.6 6.1 0.00 0.00 0.00 93 1030.9
20260510163035 43 121 1.7 7.0 0.00 0.00 0.00 93 1030.9
20260510161536 43 128 1.7 5.2 0.00 0.00 0.00 93 1031.1
20260510160036 43 123 1.7 5.2 0.00 0.00 0.00 93 1031.3
20260510154539 43 136 2.6 4.3 0.00 0.00 0.00 93 1031.3
20260510153036 43 138 1.7 4.3 0.00 0.00 0.00 93 1031.2
20260510151538 43 136 2.6 6.1 0.00 0.00 0.00 93 1031.0
20260510150042 43 138 2.6 4.3 0.00 0.00 0.00 93 1031.2
20260510144556 43 126 1.7 6.1 0.00 0.00 0.00 93 1031.2
20260510143032 43 117 2.6 6.1 0.00 0.00 0.00 92 1031.1
20260510141531 43 124 1.7 6.1 0.00 0.00 0.00 92 1031.3
20260510140038 43 121 2.6 6.1 0.00 0.00 0.00 92 1031.4
20260510134550 44 118 2.6 5.2 0.00 0.00 0.00 92 1031.3
20260510133033 44 121 1.7 6.1 0.00 0.00 0.00 92 1031.5
20260510131530 44 124 1.7 5.2 0.00 0.00 0.00 92 1031.6
20260510130034 44 144 2.6 4.3 0.00 0.00 0.00 92 1031.6
20260510124542 44 130 2.6 6.1 0.00 0.00 0.00 92 1031.8
20260510123036 44 124 1.7 5.2 0.00 0.00 0.00 92 1031.8
20260510121533 44 125 1.7 6.1 0.00 0.00 0.00 91 1031.8
20260510120040 44 142 2.6 6.1 0.00 0.00 0.00 91 1031.8
20260510114532 45 128 1.7 7.0 0.00 0.00 0.00 91 1031.7
20260510113034 45 140 2.6 7.0 0.00 0.00 0.00 91 1031.6
20260510111551 45 148 2.6 6.1 0.00 0.00 0.00 90 1031.7
20260510110034 45 144 2.6 6.1 0.00 0.00 0.00 90 1031.5
20260510104540 45 110 1.7 6.1 0.00 0.00 0.00 90 1031.5
20260510103038 46 130 1.7 7.0 0.00 0.00 0.00 89 1031.6
20260510101539 46 112 2.6 7.0 0.00 0.00 0.00 89 1031.4
20260510100035 46 143 2.6 7.8 0.00 0.00 0.00 89 1031.4
20260510094539 47 153 2.6 8.7 0.00 0.00 0.00 88 1031.4
20260510093036 47 146 3.5 7.0 0.00 0.00 0.00 88 1031.1
20260510091535 47 142 2.6 7.0 0.00 0.00 0.00 87 1031.1
20260510090036 48 146 2.6 7.0 0.00 0.00 0.00 86 1030.7
20260510084536 48 156 3.5 7.8 0.00 0.00 0.00 86 1030.7
20260510083037 49 145 5.2 8.7 0.00 0.00 0.00 85 1030.6
20260510081530 49 155 4.3 7.8 0.00 0.00 0.00 84 1030.4
20260510080036 50 149 4.3 8.7 0.00 0.00 0.00 83 1030.2
20260510074541 51 162 4.3 9.6 0.00 0.00 0.00 81 1030.1
20260510073037 52 163 5.2 8.7 0.00 0.00 0.00 80 1030.2
20260510071536 53 137 4.3 9.6 0.00 0.00 0.00 78 1030.2
20260510070034 54 153 6.1 10.4 0.00 0.00 0.00 76 1030.0
20260510064538 55 167 4.3 9.6 0.00 0.00 0.00 75 1030.1
20260510063037 56 159 4.3 9.6 0.00 0.00 0.00 73 1029.9
20260510061538 56 134 4.3 12.2 0.00 0.00 0.00 72 1029.9
20260510060046 57 147 6.1 13.0 0.00 0.00 0.00 72 1029.8
20260510054536 57 128 5.2 10.4 0.00 0.00 0.00 72 1029.7
20260510053035 58 171 5.2 10.4 0.00 0.00 0.00 71 1029.5
20260510051543 58 170 6.1 11.3 0.00 0.00 0.00 71 1029.5
20260510050036 58 151 5.2 10.4 0.00 0.00 0.00 72 1029.5
20260510044538 58 161 5.2 9.6 0.00 0.00 0.00 71 1029.4
20260510043047 59 98 6.1 10.4 0.00 0.00 0.00 72 1029.4
20260510041535 58 134 4.3 10.4 0.00 0.00 0.00 72 1029.4
20260510040036 58 153 4.3 9.6 0.00 0.00 0.00 73 1029.5
20260510034539 58 152 6.1 9.6 0.00 0.00 0.00 73 1029.5
20260510033030 58 104 4.3 9.6 0.00 0.00 0.00 74 1029.5
20260510031604 57 176 6.1 11.3 0.00 0.00 0.00 74 1029.6
20260510030038 57 155 3.5 12.2 0.00 0.00 0.00 75 1029.8
20260510024537 57 133 6.1 11.3 0.00 0.00 0.00 76 1029.9
20260510023045 56 150 5.2 11.3 0.00 0.00 0.00 77 1029.9
20260510021542 56 117 4.3 10.4 0.00 0.00 0.00 79 1030.1
20260510020035 55 156 6.1 12.2 0.00 0.00 0.00 79 1030.3
20260510014535 55 139 5.2 12.2 0.00 0.00 0.00 81 1030.4
20260510013037 54 148 7.8 11.3 0.00 0.00 0.00 82 1030.6
20260510012521 54 121 6.1 12.2 0.00 0.00 0.00 83 1030.6
20260510012019 54 118 7.0 12.2 0.00 0.00 0.00 84 1030.7
20260510011608 53 97 6.1 12.2 0.00 0.00 0.00 85 1030.7
20260510011020 53 113 6.1 12.2 0.00 0.00 0.00 86 1030.7
20260510010518 53 121 7.8 13.0 0.00 0.00 0.00 86 1030.7
20260510010042 53 132 7.0 13.9 0.00 0.00 0.00 87 1030.7
20260510005517 52 175 7.0 13.9 0.00 0.00 0.00 88 1030.8
20260510005017 52 127 7.8 13.9 0.00 0.00 0.00 89 1030.7
20260510004536 52 166 7.0 16.5 0.00 0.00 0.00 89 1030.7
20260510004019 52 155 8.7 16.5 0.00 0.00 0.00 89 1030.7
20260510003519 52 152 9.6 16.5 0.00 0.00 0.00 89 1030.7
20260510003031 52 134 7.8 14.8 0.00 0.00 0.00 89 1030.7
20260510002519 52 157 7.8 16.5 0.00 0.00 0.00 90 1030.7
20260510002022 52 156 9.6 16.5 0.00 0.00 0.00 91 1030.7
20260510001533 52 162 6.1 13.0 0.00 0.00 0.00 92 1030.6
20260510001020 51 119 7.8 13.0 0.00 0.00 0.00 92 1030.6
20260510000518 51 157 7.0 13.0 0.00 0.00 0.00 92 1030.6
20260510000035 51 107 7.0 13.9 0.00 0.00 0.00 92 1030.7
20260509235518 50 120 7.0 13.9 0.00 0.00 0.00 93 1030.7
20260509235016 50 143 8.7 15.6 0.00 0.00 0.00 93 1030.7
20260509234536 50 154 7.8 15.6 0.00 0.00 0.00 93 1030.7
20260509234017 50 137 7.8 14.8 0.00 0.00 0.00 94 1030.7
20260509233516 50 117 7.8 13.0 0.00 0.00 0.00 94 1030.7
20260509233035 50 149 7.8 16.5 0.00 0.00 0.00 94 1030.7
20260509232521 50 138 7.8 16.5 0.00 0.00 0.00 94 1030.6
20260509232019 49 125 7.0 12.2 0.00 0.00 0.00 94 1030.6
20260509231537 49 113 6.1 13.9 0.00 0.00 0.00 94 1030.6
20260509231020 49 144 7.0 13.9 0.00 0.00 0.00 94 1030.5
20260509230519 49 132 6.1 12.2 0.00 0.00 0.00 94 1030.5
20260509230037 49 124 4.3 14.8 0.00 0.00 0.00 94 1030.5
20260509225520 49 122 7.0 14.8 0.00 0.00 0.00 94 1030.4
20260509225019 49 153 7.0 17.4 0.00 0.00 0.00 94 1030.4
20260509224535 49 151 7.8 17.4 0.00 0.00 0.00 94 1030.4
20260509224019 49 122 8.7 16.5 0.00 0.00 0.00 94 1030.2
20260509223519 49 130 7.8 19.1 0.00 0.00 0.00 94 1030.2
20260509223033 49 146 8.7 19.1 0.00 0.00 0.00 94 1030.2
20260509222518 49 140 6.1 16.5 0.00 0.00 0.00 94 1030.3
20260509222019 49 157 10.4 17.4 0.00 0.00 0.00 94 1030.1
20260509221535 49 145 7.0 17.4 0.00 0.00 0.00 94 1030.1
20260509221019 49 163 5.2 13.0 0.00 0.00 0.00 94 1030.0
20260509220518 49 148 5.2 12.2 0.00 0.00 0.00 94 1030.1
20260509220037 49 134 7.0 12.2 0.00 0.00 0.00 94 1029.9
20260509215523 48 144 7.8 13.9 0.00 0.00 0.00 94 1029.9
20260509215020 48 157 7.8 14.8 0.00 0.00 0.00 94 1029.8
20260509214537 48 154 7.0 14.8 0.00 0.00 0.00 94 1029.8